Location: Hylo
(54.6785°N, 112.2142°W)
Time: 12:01:04
(UTC+00:00)

ACS3 Solar Sail - Pass Details

Date: 25 September 2024
Orbit: 961 x 1035 km, 97.4° (Epoch: 08 October)

Event Time Altitude Azimuth Distance (km) Brightness Sun altitude
Exits shadow 05:52:58 - 239° (WSW) 3,750 4.8 -33.5°
Reaches altitude 10° 05:58:35 10° 280° (W) 2,846 4.6 -33.8°
Maximum altitude 05:59:21 10° 287° (WNW) 2,831 4.6 -33.9°
Drops below altitude 10° 06:00:08 10° 294° (WNW) 2,847 4.7 -33.9°
Sets 06:05:58 0° 335° (NNW) 3,795 5.9 -34.3°
